Location: Seattle
(47.6064°N, 122.3308°W)
Time: 01:48:05
(UTC-08:00)

Tiros 1 - Pass Details

Date: 02 December 2020
Orbit: 630 x 663 km, 48.4° (Epoch: 28 January)

Event Time Altitude Azimuth Distance (km) Brightness Sun altitude
Rises 16:34:43 0° 268° (W) 2,994 11.8 -3.1°
Reaches altitude 10° 16:37:05 10° 270° (W) 2,081 10.9 -3.4°
Maximum altitude 16:41:54 81° 358° (N) 674 7.2 -4.1°
Drops below altitude 10° 16:46:41 10° 86° (E) 2,069 9.2 -4.8°
Enters shadow 16:48:10 - 87° (E) 2,639 9.7 -5.0°
Sets 16:49:02 0° 87° (E) 2,976 - -5.2°
